Regional Weather Roundup
Issued by NWS

Home | Current Version | Previous Version | Graphics & Text | Print | Product List | Glossary On
Versions: 1 2 3 4 5 6 7 8 9 10 11 12 13 14 15 16 17 18 19 20 21 22 23 24 25 26 27 28 29 30 31 32 33 34 35 36 37 38 39 40 41 42 43 44 45 46 47 48 49 50
000
ASUS45 KCYS 181210
RWRWY

WYOMING REGIONAL WEATHER ROUNDUP
NATIONAL WEATHER SERVICE CHEYENNE WY
500 AM MST THU DEC 18 2014

NOTE:  "FAIR" INDICATES FEW OR NO CLOUDS BELOW 12,000 FEET
WITH NO SIGNIFICANT WEATHER AND/OR OBSTRUCTIONS TO VISIBILITY.

WYZ001-181300-
YELLOWSTONE NATIONAL PARK

CITY           SKY/WX    TMP DP  RH WIND       PRES   REMARKS
LK YELLOWSTONE   N/A     20  15  81 CALM      30.02R
6HR MIN TEMP:  16; 6HR MAX TEMP:  22;

W YELLOWSTONE  NOT AVBL

$$
WYZ002>013-054>058-071-098>099-181300-
NORTHERN WYOMING

CITY           SKY/WX    TMP DP  RH WIND       PRES   REMARKS
JACKSON        CLOUDY    14  12  92 CALM      30.04R
CODY           FAIR      21  12  68 SW5       29.94S WCI  15
GREYBULL       FAIR       8   6  92 S5        30.04R WCI   0
6HR MIN TEMP:   7; 6HR MAX TEMP:  12;

WORLAND        FAIR       4   0  83 SE5       30.01S WCI  -5
6HR MIN TEMP:  -4; 6HR MAX TEMP:   6;

SHERIDAN       FAIR      14   8  77 CALM      29.94S
6HR MIN TEMP:  11; 6HR MAX TEMP:  20;

BUFFALO        FAIR      23  15  71 W8        29.94F WCI  14
6HR MIN TEMP:  22; 6HR MAX TEMP:  27;

GILLETTE       FAIR      12   9  87 S5        29.95S WCI   4
6HR MIN TEMP:  11; 6HR MAX TEMP:  27;

HULETT           N/A    N/A N/A N/A MISG        N/A
NEWCASTLE      FAIR      10  10 100 CALM      29.98S

$$
WYZ014>020-022>026-101>103-181300-
CENTRAL WYOMING

CITY           SKY/WX    TMP DP  RH WIND       PRES   REMARKS
BIG PINEY      FAIR       8   3  80 NW6       30.04S WCI  -2
6HR MIN TEMP:   7; 6HR MAX TEMP:  13;

PINEDALE       FAIR      10   9  92 NW3       30.03S
DUBOIS         CLOUDY    25  14  63 W14       29.98S WCI  13
LANDER         FAIR      -1  -4  87 CALM      30.00R FOG
6HR MIN TEMP:  -2; 6HR MAX TEMP:   4;

RIVERTON       FOG        8   4  83 CALM      30.01R VSB 1/4
6HR MIN TEMP:   7; 6HR MAX TEMP:  15;

CASPER         FAIR      18  13  80 W10       29.98R WCI   6
6HR MIN TEMP:  18; 6HR MAX TEMP:  25;

DOUGLAS        FAIR       7   3  84 CALM      29.98R
6HR MIN TEMP:   4; 6HR MAX TEMP:  14;


$$
WYZ021-027>030-104>119-181300-
SOUTHERN WYOMING

CITY           SKY/WX    TMP DP  RH WIND       PRES   REMARKS
EVANSTON       FAIR      20  18  92 SW7       30.04R WCI  11
6HR MIN TEMP:  20; 6HR MAX TEMP:  27;

KEMMERER       FAIR      19  18  93 CALM      30.03S
FORT BRIDGER   FAIR      25  22  90 SW8       30.06S WCI  16
ROCK SPRINGS   FAIR      17  14  88 W8        30.03S WCI   7
6HR MIN TEMP:  15; 6HR MAX TEMP:  20;

DIXON          CLOUDY   N/A N/A N/A SE3       30.10S
RAWLINS        MOCLDY    19  14  81 SW9       30.02R WCI   8
6HR MIN TEMP:  17; 6HR MAX TEMP:  21;

SARATOGA       CLOUDY    19  14  79 CALM      30.04R
LARAMIE        FAIR      14   9  80 SW8       29.96S WCI   3
6HR MIN TEMP:   7; 6HR MAX TEMP:  18;

CHEYENNE       FAIR      22  15  75 W6        29.97S WCI  14
6HR MIN TEMP:  19; 6HR MAX TEMP:  30;

TORRINGTON     FOG        8   5  87 CALM      30.00S VSB 1/2
6HR MIN TEMP:   8; 6HR MAX TEMP:  14;

PINE BLUFFS    FAIR      19  14  79 W5        29.99S WCI  13

$$


USA.gov is the U.S. government's official web portal to all federal, state and local government web resources and services.